Weather History for Flippin, AR

Change the Weather History Date:

Saturday, July 27, 2013

  Actual Average Record
Temperature  
Mean Temperature 74 °F -  
Max Temperature 82 °F 88 °F 102 °F (1997)
Min Temperature 64 °F 67 °F 57 °F (2004)
Cooling Degree Days 9    
Growing Degree Days 24 (Base 50)    
Moisture  
Dew Point 58 °F    
Average Humidity 63    
Maximum Humidity 83    
Minimum Humidity 37    
Precipitation  
Precipitation 0.00 in - - ()
Sea Level Pressure  
Sea Level Pressure 30.00 in    
Wind  
Wind Speed 2 mph (NW)    
Max Wind Speed 8 mph    
Max Gust Speed -    
Visibility 7 miles    
Events      
Averages and records for this station are not official NWS values.
T = Trace of Precipitation, MM = Missing Value Source: NWS Daily Summary

Daily Weather History Graph

Daily Weather History Graph

Search for Another Location

Airport:

Trip Planner

Search our weather history database for the weather conditions in past years. The results will help you decide how hot, cold, wet, or windy it might be!

Date:

Astronomy

Jul. 27, 2013 Rise Set
Actual Time 6:13 AM CDT 8:19 PM CDT
Civil Twilight 5:44 AM CDT 8:48 PM CDT
Nautical Twilight 5:09 AM CDT 9:23 PM CDT
Astronomical Twilight 4:31 AM CDT 10:01 PM CDT
Moon 11:20 PM CDT (7/27) 11:42 AM CDT (7/27)
Length of Visible Light 15h 03m
Length of Day
14h 06m
Waning Gibbous, 70% of the Moon is Illuminated
Jul 27
Waning Gibbous
Jul 29
Last Quarter
Aug 6
New
Aug 14
First Quarter
Aug 20
Full

Hourly Weather History & Observations

Time (CDT) Temp. Heat Index Dew Point Humidity Pressure Visibility Wind Dir Wind Speed Gust Speed Precip Events Conditions
12:16 AM 66.2 °F - 60.8 °F 83% 30.03 in 0.2 mi Calm Calm - N/A   Overcast
12:55 AM 66.2 °F - 60.8 °F 83% 30.03 in 0.2 mi Calm Calm - N/A   Overcast
1:35 AM 66.2 °F - 59.0 °F 78% 30.03 in 0.2 mi Calm Calm - N/A   Overcast
1:55 AM 66.2 °F - 59.0 °F 78% 30.03 in 0.2 mi Calm Calm - N/A   Overcast
2:15 AM 66.2 °F - 59.0 °F 78% 30.02 in 0.2 mi Calm Calm - N/A   Overcast
2:35 AM 66.2 °F - 59.0 °F 78% 30.02 in 0.2 mi Calm Calm - N/A   Overcast
2:55 AM 66.2 °F - 59.0 °F 78% 30.02 in 0.2 mi WNW 3.5 mph - N/A   Overcast
3:15 AM 66.2 °F - 59.0 °F 78% 30.01 in 1.0 mi WNW 3.5 mph - N/A   Overcast
3:35 AM 66.2 °F - 59.0 °F 78% 30.01 in 0.8 mi Calm Calm - N/A   Overcast
3:55 AM 66.2 °F - 59.0 °F 78% 30.01 in 1.5 mi WNW 3.5 mph - N/A   Overcast
4:15 AM 66.2 °F - 59.0 °F 78% 30.01 in 5.0 mi NNW 3.5 mph - N/A   Overcast
4:36 AM 66.2 °F - 59.0 °F 78% 30.01 in 7.0 mi NNW 4.6 mph - N/A   Overcast
4:55 AM 66.2 °F - 59.0 °F 78% 30.01 in 7.0 mi Calm Calm - N/A   Overcast
5:35 AM 66.2 °F - 59.0 °F 78% 30.01 in 9.0 mi Calm Calm - N/A   Overcast
5:55 AM 66.2 °F - 59.0 °F 78% 30.02 in 5.0 mi Calm Calm - N/A   Overcast
6:15 AM 66.2 °F - 59.0 °F 78% 30.02 in 5.0 mi Calm Calm - N/A   Overcast
6:35 AM 66.2 °F - 59.0 °F 78% 30.03 in 4.0 mi Calm Calm - N/A   Overcast
6:55 AM 66.2 °F - 59.0 °F 78% 30.03 in 3.0 mi Calm Calm - N/A   Overcast
7:15 AM 66.2 °F - 60.8 °F 83% 30.02 in 5.0 mi Calm Calm - N/A   Overcast
7:35 AM 66.2 °F - 60.8 °F 83% 30.03 in 5.0 mi Calm Calm - N/A   Overcast
8:15 AM 68.0 °F - 60.8 °F 78% 30.03 in 10.0 mi North 3.5 mph - N/A   Overcast
9:15 AM 69.8 °F - 60.8 °F 73% 30.03 in 10.0 mi Calm Calm - N/A   Mostly Cloudy
9:35 AM 69.8 °F - 60.8 °F 73% 30.03 in 10.0 mi NW 5.8 mph - N/A   Overcast
9:55 AM 69.8 °F - 60.8 °F 73% 30.03 in 10.0 mi NW 4.6 mph - N/A   Overcast
10:15 AM 69.8 °F - 60.8 °F 73% 30.03 in 10.0 mi West 6.9 mph - N/A   Mostly Cloudy
10:35 AM 73.4 °F - 60.8 °F 65% 30.03 in 10.0 mi NW 5.8 mph - N/A   Mostly Cloudy
10:55 AM 73.4 °F - 60.8 °F 65% 30.04 in 10.0 mi NNW 6.9 mph - N/A   Mostly Cloudy
11:35 AM 78.8 °F - 60.8 °F 54% 30.03 in 10.0 mi NNW 5.8 mph - N/A   Mostly Cloudy
12:15 PM 78.8 °F - 59.0 °F 51% 30.02 in 10.0 mi NNW 6.9 mph - N/A   Clear
1:35 PM 80.6 °F 80.8 °F 57.2 °F 45% 30.01 in 10.0 mi NNW 8.1 mph - N/A   Partly Cloudy
1:55 PM 80.6 °F 80.5 °F 55.4 °F 42% 29.99 in 10.0 mi North 3.5 mph - N/A   Partly Cloudy
2:15 PM 80.6 °F 80.5 °F 55.4 °F 42% 30.00 in 10.0 mi NNW 8.1 mph - N/A   Clear
2:35 PM 80.6 °F 80.5 °F 55.4 °F 42% 30.00 in 10.0 mi North 5.8 mph - N/A   Clear
2:55 PM 82.4 °F 81.7 °F 55.4 °F 39% 29.99 in 10.0 mi WNW 8.1 mph - N/A   Clear
3:15 PM 82.4 °F 81.7 °F 55.4 °F 39% 29.98 in 10.0 mi NNW 6.9 mph - N/A   Clear
3:35 PM 82.4 °F 81.7 °F 55.4 °F 39% 29.97 in 10.0 mi West 6.9 mph - N/A   Clear
3:55 PM 82.4 °F 81.7 °F 55.4 °F 39% 29.96 in 10.0 mi West 4.6 mph - N/A   Clear
4:35 PM 82.4 °F 81.7 °F 55.4 °F 39% 29.96 in 10.0 mi West 5.8 mph - N/A   Clear
4:55 PM 82.4 °F 81.7 °F 55.4 °F 39% 29.96 in 10.0 mi NNW 6.9 mph - N/A   Clear
5:35 PM 82.4 °F 81.7 °F 55.4 °F 39% 29.96 in 10.0 mi North 5.8 mph - N/A   Clear
5:55 PM 82.4 °F 81.4 °F 53.6 °F 37% 29.96 in 10.0 mi North 6.9 mph - N/A   Clear
6:35 PM 82.4 °F 81.4 °F 53.6 °F 37% 29.96 in 10.0 mi NW 8.1 mph - N/A   Clear
6:55 PM 80.6 °F 80.3 °F 53.6 °F 39% 29.97 in 10.0 mi NNW 6.9 mph - N/A   Clear
7:15 PM 78.8 °F - 53.6 °F 42% 29.97 in 10.0 mi North 8.1 mph - N/A   Clear
8:35 PM 73.4 °F - 53.6 °F 50% 29.97 in 10.0 mi NNE 4.6 mph - N/A   Clear
8:55 PM 73.4 °F - 53.6 °F 50% 29.97 in 10.0 mi NNE 3.5 mph - N/A   Clear
9:15 PM 71.6 °F - 53.6 °F 53% 29.98 in 10.0 mi NNE 3.5 mph - N/A   Clear
9:35 PM 71.6 °F - 55.4 °F 57% 29.99 in 10.0 mi Calm Calm - N/A   Clear
9:55 PM 69.8 °F - 53.6 °F 56% 29.99 in 10.0 mi Calm Calm - N/A   Clear
11:15 PM 68.0 °F - 55.4 °F 64% 29.99 in 10.0 mi Calm Calm - N/A   Clear
11:35 PM 66.2 °F - 55.4 °F 68% 30.00 in 10.0 mi Calm Calm - N/A   Clear
11:55 PM 64.4 °F - 55.4 °F 73% 30.01 in 10.0 mi West 3.5 mph - N/A   Clear